Flag for South Africa Weather past 2 weeks in Port Elizabeth, South Africa

Now
64 °F

Sunny.


Feels Like: 64 °F
Forecast: 56 / 61 °F
Wind: 20 mph from Northwest

Location: Port Elizabeth Airport

Current Time: Jul 26, 2014 at 3:25:12 PM

Latest Report: Jul 26, 2014 at 3:00 PM


Visibility: 10 mi

Pressure: 29.98 "Hg

Humidity: 32%

Dew point: 34 °F

Location of Port ElizabethLocation

Historic Weather in Port Elizabeth — Graph

°F

Port Elizabeth temperature yesterday

Maximum temperature yesterday: 68 °F (at 1:00 PM)
Minimum temperature yesterday: 50 °F (at 6:00 AM)
Average temperature yesterday: 59 °F

Past Weeks' High & Low Weather Summary

 TemperatureHumidityPressure
High81 °F (Jul 24, 3:00 PM)94% (Jul 14, 2:00 AM)30.45 "Hg (Jul 14, 2:00 AM)
Low39 °F (Jul 16, 4:00 AM)26% (Jul 24, 3:00 PM)29.59 "Hg (Jul 17, 3:01 PM)
Average58 °F67%30.08 "Hg
* Reported Jul 11 2:00 PM — Jul 26 2:00 PM, Port Elizabeth, Weather by CustomWeather, © 2014

Note: Actual official high and low records may vary slightly from our data, if they occured in-between our weather recording intervals... More about our weather records

Advertising

Port Elizabeth weather history for previous 24 hours

 ConditionsComfort  
Time TempWeatherWind HumidityBarometerVisibility
2:00 PM
Jul 26
64 °FPassing clouds.17 mph34%29.98 "HgN/A
1:00 PM64 °FPassing clouds.20 mph37%29.98 "HgN/A
12:00 PM61 °FPassing clouds.18 mph36%30.04 "HgN/A
11:00 AM61 °FPassing clouds.20 mph36%30.04 "HgN/A
10:00 AM59 °FSunny.16 mph42%30.07 "Hg10 mi
9:00 AM54 °FPassing clouds.5 mph54%30.07 "HgN/A
8:56 AM54 °FPassing clouds.6 mph54%30.07 "HgN/A
8:00 AM48 °FSunny.7 mph62%30.04 "Hg10 mi
7:00 AM46 °FSunny.7 mph71%30.04 "Hg10 mi
6:00 AM46 °FClear.6 mph76%30.01 "Hg10 mi
5:00 AM48 °FClear.5 mph71%30.01 "Hg10 mi
4:00 AM50 °FClear.6 mph71%30.01 "Hg10 mi
3:00 AM52 °FPassing clouds.9 mph67%30.01 "HgN/A
2:00 AM52 °FClear.12 mph72%30.01 "Hg10 mi
1:00 AM52 °FClear.9 mph72%30.01 "Hg10 mi
12:00 AM54 °FClear.12 mph72%30.01 "Hg10 mi
11:00 PM
Jul 25
54 °FClear.8 mph77%30.01 "Hg10 mi
10:00 PM54 °FPassing clouds.15 mph82%29.98 "HgN/A
9:00 PM55 °FPassing clouds.15 mph77%29.98 "HgN/A
8:00 PM55 °FPassing clouds.23 mph82%29.95 "Hg6 mi
7:00 PM59 °FPassing clouds.23 mph72%29.92 "HgN/A
6:00 PM59 °FPassing clouds.24 mph72%29.89 "HgN/A
5:48 PM59 °FPassing clouds.25 mph72%29.86 "HgN/A
5:00 PM63 °FPassing clouds.23 mph59%29.83 "HgN/A
4:00 PM66 °FPassing clouds.7 mph56%29.83 "HgN/A
3:00 PM64 °FPassing clouds.7 mph60%29.80 "HgN/A
Weather by CustomWeather, © 2014

See weather overviewHow to use our weather pages